RH
43 48 80 76 80 79 75 72 68 66 64 63 62 62 62 61 62 61 62 63 63 63 62 62 61 61 61 60 60 60 59 56 58 66 75 80 79 72 69 70 66 48 68
40 47 84 81 82 76 73 70 67 65 64 63 62 60 60 61 62 62 62 61 60 59 60 59 59 58 58 57 57 57 56 53 56 64 67 77 86 73 75 77 78 67 73
39 49 67 84 82 77 73 68 66 65 64 64 61 58 61 62 62 59 58 59 59 58 58 59 58 57 55 56 56 57 56 52 54 56 60 42 55 68 66 67 68 68 69
41 53 57 87 82 75 69 66 66 65 64 63 60 60 62 60 58 57 58 59 59 58 58 58 57 56 55 56 56 56 55 54 54 49 38 40 38 60 61 62 62 63 63
47 50 58 86 81 73 67 66 65 64 63 61 61 62 59 58 56 58 59 58 58 58 58 57 55 54 53 53 54 54 51 55 51 39 36 44 39 48 56 57 54 56 60
54 48 79 85 79 70 68 66 64 64 64 61 62 59 57 55 57 57 57 59 59 59 56 55 54 53 53 52 52 51 51 50 44 28 29 38 35 49 51 54 55 57 57
51 46 67 82 77 70 68 66 64 64 62 61 59 56 54 55 56 58 58 57 58 58 56 54 53 52 52 51 52 51 50 49 25 26 29 35 40 49 51 53 54 56 58
47 58 65 80 78 75 69 67 64 62 62 59 57 55 54 56 56 56 57 57 56 56 55 54 53 53 51 51 51 53 54 52 32 31 37 37 54 53 54 55 56 55 57
48 55 62 62 66 78 75 72 69 64 64 59 56 56 57 58 58 57 58 57 57 57 57 54 53 53 53 54 56 57 55 55 32 36 34 38 62 56 56 57 56 56 56
62 60 65 56 50 50 54 77 73 70 68 65 63 68 73 68 60 63 60 60 58 58 56 55 54 53 59 61 61 59 49 46 30 36 40 47 58 56 56 56 57 58 61
76 71 67 51 46 44 44 59 72 75 74 72 66 69 56 33 37 44 70 64 61 59 57 55 54 54 53 66 66 58 51 28 30 37 44 67 65 63 63 62 63 57 58
85 82 67 51 46 44 41 45 42 43 37 33 32 31 28 31 36 43 61 66 63 58 58 55 52 44 47 33 36 47 29 29 32 40 52 70 57 58 59 62 56 54 58
75 82 67 51 48 45 45 43 41 36 36 34 33 33 33 36 36 35 38 36 36 50 30 32 29 28 36 35 36 33 32 31 32 41 65 72 62 54 54 56 53 56 59
80 83 69 55 52 48 46 42 38 37 37 34 32 36 36 39 37 33 33 38 36 31 32 31 26 28 36 38 35 33 34 35 37 41 59 78 67 61 63 63 64 63 53
78 83 71 57 50 48 47 43 40 38 37 35 35 36 35 37 35 36 36 35 36 33 29 30 27 26 32 36 37 38 40 37 37 39 43 77 73 69 62 64 64 63 60
74 82 68 57 48 47 44 46 42 41 40 39 36 37 38 36 37 38 38 38 37 34 31 29 29 29 30 34 39 39 39 39 37 38 37 44 68 70 67 66 62 63 60
74 82 69 57 49 49 45 47 46 46 43 42 40 39 42 41 41 41 39 40 38 33 32 31 32 30 30 37 40 40 39 36 36 37 38 37 38 61 63 65 67 62 63
82 85 69 56 53 50 48 50 48 46 42 41 41 43 44 42 43 42 41 40 38 36 33 33 32 32 32 36 39 42 41 39 37 35 34 34 35 33 47 63 67 71 67
84 78 71 61 58 55 53 52 52 49 43 42 43 43 41 42 42 39 40 41 40 38 36 33 37 35 36 38 42 45 44 42 41 36 35 36 39 38 37 59 62 81 74
83 76 68 60 57 57 58 56 52 49 45 44 43 43 43 40 42 42 42 41 38 38 38 38 38 40 39 38 37 47 49 48 45 43 39 33 36 35 36 40 40 53 75
79 75 69 65 60 61 60 57 54 51 50 50 49 45 44 44 44 43 43 42 40 36 35 34 38 39 42 40 42 50 51 50 41 44 44 38 39 35 36 35 38 39 47
80 78 71 67 66 61 57 53 49 48 49 48 50 46 43 43 46 44 44 44 40 40 39 37 37 39 41 42 37 39 42 46 39 41 45 41 34 34 34 36 35 43 48
80 82 75 68 69 66 57 55 52 55 56 54 52 49 47 43 45 45 45 43 44 41 42 42 41 40 41 43 44 38 38 35 37 38 39 37 31 31 32 36 39 45 48
76 79 78 72 68 68 62 60 57 50 52 47 50 48 49 45 47 49 49 46 45 44 44 46 41 39 38 42 43 42 48 41 37 34 36 36 30 31 34 33 38 44 48
77 82 79 73 71 64 66 59 61 59 54 52 50 50 48 48 48 53 51 54 51 47 48 48 46 42 38 41 41 44 43 43 38 37 33 33 30 31 33 35 38 42 48
80 80 78 74 73 68 68 64 63 64 62 56 54 52 50 50 52 54 53 53 53 52 53 51 49 47 45 48 45 44 42 42 42 41 39 43 46 35 35 34 36 38 44
Wind_Speed
14 18 17 16 14 17 15 14 13 13 12 12 12 11 11 11 11 11 12 12 12 11 11 12 12 12 12 11 11 11 10 9 9 9 7 5 4 6 10 10 7 8 8
19 20 18 16 17 17 15 15 14 13 13 12 11 11 11 11 11 12 11 11 11 11 11 11 11 11 11 12 12 12 12 11 10 9 6 5 12 10 12 11 11 10 10
21 20 19 16 17 18 15 15 14 13 13 12 11 11 11 11 11 11 11 11 11 11 11 11 11 11 11 12 12 12 12 11 10 9 6 7 11 11 11 11 11 10 10
19 18 18 16 17 18 15 15 14 13 13 12 12 11 12 11 11 11 11 11 10 11 11 11 11 11 11 12 12 13 12 11 10 8 5 6 7 10 10 10 9 9 9
19 17 17 18 18 16 15 15 15 14 13 12 12 12 11 11 11 11 11 10 10 11 11 11 11 12 12 11 12 12 12 11 8 5 6 7 5 10 10 11 9 9 9
17 17 18 17 19 16 16 15 15 14 14 13 12 12 11 11 11 11 11 10 10 10 10 10 11 11 11 11 11 11 10 8 5 6 6 7 6 8 9 9 8 7 8
18 16 18 18 18 17 16 16 15 14 14 13 12 12 11 12 12 11 11 10 10 10 10 10 11 10 10 10 10 10 9 7 6 7 6 6 8 8 8 7 7 6 7
17 18 17 17 15 16 16 15 15 14 14 13 13 12 12 12 12 11 10 9 9 10 10 10 10 10 10 10 10 9 9 7 5 7 7 6 8 8 8 7 6 6 6
17 16 15 15 14 13 14 14 14 14 13 13 13 13 12 12 11 10 10 10 10 9 9 9 10 9 10 10 10 9 9 6 7 6 6 7 8 9 8 7 7 7 7
14 15 14 14 14 14 13 11 12 12 12 13 13 12 11 11 10 9 9 10 10 9 9 9 10 9 10 10 9 8 4 2 8 6 6 6 8 9 9 8 8 7 9
12 11 14 14 13 13 13 11 11 11 12 13 12 10 8 6 7 8 10 9 9 9 8 9 9 8 5 8 8 5 4 4 6 5 6 11 5 10 10 10 8 9 9
16 13 13 14 14 13 10 12 10 10 8 7 7 8 5 6 6 7 7 9 9 7 8 8 8 4 1 4 4 3 5 6 6 6 7 12 13 12 12 13 12 10 9
16 11 14 14 14 13 10 8 6 5 5 5 7 6 6 5 5 4 4 3 3 2 3 3 4 4 6 4 4 5 6 6 5 5 11 15 14 12 11 11 10 8 9
15 13 14 14 13 12 8 7 7 6 6 5 5 7 6 4 4 4 3 3 3 3 4 3 4 5 6 6 6 7 7 6 4 4 10 14 14 13 13 13 14 13 9
15 15 15 14 14 12 11 8 7 7 6 6 5 6 5 5 4 4 4 3 3 3 3 3 4 4 4 5 6 7 7 7 7 4 6 13 14 14 12 13 13 13 12
14 15 16 15 13 13 10 10 8 7 7 6 5 5 6 4 4 4 4 4 3 3 3 3 4 4 4 4 6 6 7 6 7 6 5 8 12 13 13 13 12 12 12
14 13 17 17 14 13 12 10 8 7 7 6 5 6 6 5 5 5 4 4 3 3 4 3 4 4 4 3 5 5 5 6 6 7 5 5 5 11 12 11 11 10 12
13 15 17 14 15 14 12 10 7 7 7 7 6 5 6 6 6 5 4 4 4 3 3 2 2 4 4 3 4 4 4 5 6 6 6 5 5 5 8 11 10 11 12
14 16 18 17 16 15 12 9 8 8 7 7 7 5 6 7 6 5 5 5 4 3 3 3 3 3 4 4 4 4 3 4 5 4 6 6 6 5 5 8 7 10 11
16 17 17 15 16 15 10 8 6 7 6 6 6 7 8 6 7 5 5 6 4 3 3 3 4 4 4 4 4 3 3 3 3 3 4 4 6 6 5 6 4 6 9
16 18 19 18 17 13 11 10 8 8 7 6 6 8 8 6 7 6 5 6 4 3 4 3 4 4 5 3 4 3 3 2 2 1 1 2 5 5 6 5 4 4 4
17 19 19 18 17 15 11 10 6 9 7 6 6 7 7 8 7 6 7 6 5 4 4 4 3 3 4 3 1 1 3 4 2 2 1 3 5 4 5 4 5 5 4
18 18 19 20 18 14 15 10 8 7 6 6 7 7 7 8 7 7 7 6 6 4 3 4 4 2 4 4 5 2 2 2 0 2 2 2 6 3 5 5 5 4 5
19 16 16 19 19 14 16 13 16 11 11 8 9 7 7 8 8 7 7 7 6 4 5 4 3 3 2 4 3 5 5 4 2 2 3 1 4 4 6 4 4 4 4
16 16 15 16 18 16 15 14 11 10 7 8 8 11 8 8 8 8 8 8 7 4 5 5 5 4 4 4 3 3 3 3 3 2 1 2 1 2 4 4 3 2 4
14 16 16 17 15 15 14 13 14 13 11 11 11 10 8 7 6 8 8 7 7 6 6 5 5 5 5 4 4 3 3 2 2 2 2 3 4 2 4 2 3 2 2
Wind_Direction
157 153 166 167 161 139 134 128 122 117 113 109 104 98 95 91 87 84 80 77 73 66 60 56 52 49 49 50 54 58 60 59 51 41 35 41 65 81 67 52 356 56 46
154 156 165 163 148 136 135 130 124 119 114 110 106 102 96 92 87 84 80 76 71 65 60 56 52 48 44 41 38 39 42 46 48 42 15 125 85 72 64 58 43 48 40
152 155 162 157 147 133 138 130 126 123 120 115 106 101 97 93 87 80 75 70 67 64 60 56 53 51 49 46 41 37 37 33 33 26 354 59 79 66 55 47 42 41 37
148 149 155 150 140 130 140 132 129 128 124 116 110 106 102 96 89 83 79 74 69 64 60 57 55 52 48 47 46 45 42 35 32 0 47 47 64 54 48 40 34 29 17
152 152 137 145 135 141 141 135 133 130 125 117 114 108 104 98 92 88 82 77 73 69 66 61 54 50 49 48 46 44 40 36 27 20 46 37 26 53 36 26 15 17 19
148 153 135 139 124 147 142 138 135 133 126 122 115 113 107 102 97 91 87 82 79 74 68 64 57 53 50 48 49 47 44 37 317 56 51 62 37 41 35 27 22 23 23
153 148 147 132 139 147 143 140 138 134 130 125 123 116 111 104 98 93 90 84 79 72 66 65 58 54 51 49 50 49 44 32 42 64 64 47 43 27 30 29 25 31 36
152 147 141 131 146 144 144 140 138 135 131 129 126 120 113 107 101 95 87 81 78 70 67 63 62 58 53 51 50 46 44 7 75 67 56 51 16 29 36 36 36 39 45
154 152 148 146 144 141 141 140 138 136 133 132 128 121 112 104 98 92 85 80 71 68 64 63 60 60 56 51 52 48 48 22 71 59 47 40 27 41 47 45 46 49 52
155 159 148 156 157 154 148 135 131 130 130 126 120 111 98 96 97 93 108 74 72 67 65 63 62 60 59 60 58 55 64 297 72 68 57 39 47 55 58 57 56 58 55
163 159 162 159 159 155 146 133 123 120 116 119 121 115 148 121 115 105 68 75 71 66 64 64 61 57 77 80 62 52 286 70 70 60 56 358 71 71 66 58 56 55 53
165 160 174 164 160 156 148 155 146 143 150 149 148 151 137 129 99 92 87 83 77 71 67 64 61 61 276 67 93 161 62 73 66 58 56 6 45 48 49 50 50 35 31
169 165 179 168 163 160 155 153 150 152 147 144 143 148 133 131 150 135 134 118 101 86 70 84 86 57 59 61 66 73 62 66 77 74 43 28 32 55 55 47 43 37 27
171 170 178 169 168 164 155 164 155 158 155 151 154 152 150 141 145 132 115 100 91 77 81 63 79 76 76 67 66 79 72 72 71 68 63 28 29 41 52 48 42 30 30
180 171 180 173 172 167 165 159 159 152 163 146 158 162 155 147 143 135 120 103 86 87 67 83 81 84 83 84 84 88 78 71 72 73 84 42 37 32 42 45 38 29 34
186 179 180 180 177 171 167 165 161 156 151 154 158 160 159 146 142 141 129 112 97 70 69 68 77 79 96 95 93 90 88 81 72 69 65 81 53 41 33 38 32 31 19
190 178 186 180 177 176 170 165 160 160 160 152 155 159 156 150 146 142 125 115 98 80 81 98 96 89 106 103 100 93 85 81 80 71 60 46 85 68 39 35 33 34 26
178 189 187 180 178 177 172 169 160 161 165 152 155 162 164 148 149 146 137 115 109 98 92 93 75 92 103 116 111 103 99 83 78 71 68 56 48 32 76 39 38 32 30
182 193 189 181 179 176 172 167 161 161 164 158 157 157 173 149 157 147 135 122 128 104 94 96 79 69 109 110 103 100 95 87 79 74 68 61 55 31 23 76 52 44 38
191 195 191 184 179 173 164 159 158 161 163 161 165 158 169 157 156 145 138 129 130 124 120 104 92 74 91 101 121 112 99 87 68 57 74 75 54 28 31 26 38 75 46
199 189 190 183 179 169 167 165 166 172 167 165 164 162 163 163 156 153 141 133 133 120 104 113 101 93 86 95 147 142 131 114 80 112 66 53 30 35 30 29 30 15 84
197 198 185 187 176 181 175 171 170 164 172 163 159 164 164 161 162 159 149 139 135 134 120 106 151 124 85 39 116 193 163 160 143 85 57 34 26 31 39 17 16 27 40
196 201 193 185 180 180 173 157 145 135 135 159 170 166 166 161 164 159 150 144 134 134 120 100 86 98 123 75 52 349 183 76 256 140 98 79 11 33 12 28 26 40 45
193 195 194 187 182 172 169 170 171 177 171 180 171 169 160 164 161 154 146 143 136 134 134 112 98 97 108 115 104 63 49 16 11 168 142 108 11 30 18 21 45 62 52
181 183 192 187 185 178 175 175 168 166 163 154 161 161 161 165 158 153 150 143 143 142 132 129 125 100 91 96 84 126 80 75 42 349 25 42 33 45 19 33 46 62 69
187 172 185 180 185 174 176 172 170 161 155 157 161 163 166 162 159 158 154 147 148 140 141 133 120 111 99 98 98 90 73 51 55 9 314 342 327 339 352 24 38 52 71